Preview of NWS' New Version of Forecast
This preview is not operational and should not be used for support decisions.

Regional Weather Roundup (RWR)

Issued by National Weather Service (NWS)

                            
000
ASUS43 KDMX 231906
RWRIA 

WEATHER ROUNDUP FOR IOWA
NATIONAL WEATHER SERVICE DES MOINES IA
200 PM CDT TUE APR 23 2019

NOTE: "FAIR" INDICATES FEW OR NO CLOUDS BELOW 12,000 FEET WITH NO
SIGNIFICANT WEATHER AND/OR OBSTRUCTIONS TO VISIBILITY.

* - THESE STATIONS ARE NOT NWS STATIONS...THUS NOT UNDER NWS
QUALITY CONTROL.  THEY ALSO DO NOT REPORT WEATHER SUCH 
AS PRECIPITATION OR FOG.  

IAZ001>003-012>014-020>022-031>034-043>046-232000-
   NORTHWEST IOWA
  
CITY           SKY/WX    TMP DP  RH WIND       PRES   REMARKS
CARROLL *      SUNNY     64  34  32 NE16      30.08F                  
CHEROKEE *     SUNNY     64  34  33 NE7       30.11F                  
DENISON *      SUNNY     64  30  27 NE14G23   30.09F                  
LE MARS *        N/A    N/A N/A N/A MISG        N/A                   
SHELDON *      SUNNY     61  37  41 VRB3      30.09F                  
SIOUX CITY     SUNNY     65  37  35 VRB6      30.11F                  
SPENCER        SUNNY     64  36  35 E7        30.11F                  
STORM LAKE *     N/A     63  32  31 NE14      30.08F                  
$$
 
IAZ055>058-069>071-079>083-090>094-232000-
   SOUTHWEST IOWA
  
CITY           SKY/WX    TMP DP  RH WIND       PRES   REMARKS
ATLANTIC *     SUNNY     63  36  36 NE14G21   30.07F                  
AUDUBON *      SUNNY     63  34  34 CALM      30.09F                  
CLARINDA *     MOSUNNY   63  43  48 NE12      30.09F                  
COUNCIL BLFS * CLOUDY    66  28  24 E16       30.07F                  
CRESTON *      PTSUNNY   63  39  42 E10G18    30.07F                  
HARLAN  *      SUNNY     64  30  27 E13G22    30.08F                  
LAMONI         CLOUDY    55  45  68 VRB5      30.08F                  
RED OAK *      CLOUDY    64  34  32 E15G22    30.07F                  
SHENANDOAH *   MOSUNNY   64  41  42 E13       30.06F                  
$$
 
IAZ047>049-059>061-072>074-084-232000-
   CENTRAL IOWA
  
CITY           SKY/WX    TMP DP  RH WIND       PRES   REMARKS
AMES           SUNNY     64  40  41 NE12G21   30.08F                  
ANKENY *       CLOUDY    63  37  39 NE13      30.09F                  
BOONE *        SUNNY     61  41  48 NE12      30.08F                  
CHARITON *     CLOUDY    57  46  67 MISG      30.08F                  
DES MOINES     CLOUDY    63  36  36 NE13G23   30.07F                  
GRINNELL*      PTSUNNY   63  37  39 NE13G20   30.08F                  
KNOXVILLE *    MOSUNNY   59  45  58 E7        30.07F                  
MARSHALLTOWN   CLOUDY    63  41  44 NE12G20   30.08F                  
NEWTON *       MOSUNNY   63  39  42 NE13      30.07F                  
PELLA *        CLOUDY    63  40  43 NE8       30.08F                  
PERRY *        FAIR      63  37  37 E10G20    30.08F                  
$$
 
IAZ004>006-015-016-023>025-035-036-232000-
   NORTH CENTRAL IOWA
  
CITY           SKY/WX    TMP DP  RH WIND       PRES   REMARKS
ALGONA *       SUNNY     63  36  36 NE12G17   30.10F                  
CLARION *      SUNNY     64  32  29 NE9G17    30.10F                  
ESTHERVILLE    SUNNY     60  36  40 MISG      30.11F                  
FORT DODGE *   SUNNY     65  37  35 E10       30.10F                  
MASON CITY     SUNNY     64  37  36 NE9G18    30.11F                  
FOREST CITY *  FAIR      63  30  29 NE12      30.11F                  
IOWA FALLS *   FAIR      62  40  44 NE9       30.11F                  
$$

IAZ007>011-017>019-026>030-037>042-050>054-066-232000-
   NORTHEAST IOWA
  
CITY           SKY/WX    TMP DP  RH WIND       PRES   REMARKS
CEDAR RAPIDS   FAIR      61  43  51 N6        30.07F                  
CHARLES CITY * FAIR      63  37  39 N12       30.10F                  
CLINTON *      FAIR      59  46  62 NE10      30.07F                  
DECORAH *      FAIR      61  34  36 N8        30.07F                  
DUBUQUE        FAIR      59  43  55 N8        30.08S                  
MONTICELLO *   FAIR      61  41  48 NE6G13    30.08S                  
OELWEIN *      FAIR      61  41  48 NE9G18    30.09F                  
WATERLOO       FAIR      64  40  41 NE9G17    30.08F                  
$$
 
IAZ064-065-067-068-078-232000-
   EAST CENTRAL IOWA
  
CITY           SKY/WX    TMP DP  RH WIND       PRES   REMARKS
DAVENPORT        N/A    N/A N/A N/A MISG      30.08F                  
IOWA CITY      FAIR      61  44  53 N8        30.09F                  
MT. PLEASANT * CLOUDY    54  46  76 N3        30.09S                  
MUSCATINE *    FAIR      57  46  67 NE8G14    30.08F                  
QUAD CITIES    FAIR      61  47  59 N5        30.06F                  
$$
 
IAZ062-063-075>077-085>089-095>099-232000-
   SOUTHEAST IOWA
  
CITY           SKY/WX    TMP DP  RH WIND       PRES   REMARKS
BURLINGTON     CLOUDY    54  46  74 E5        30.08S                  
FAIRFIELD *    CLOUDY    55  45  67 NE7       30.08F                  
FORT MADISON * CLOUDY    54  48  82 CALM      30.09S                  
KEOKUK *       CLOUDY    54  48  82 NE6       30.08S                  
OSKALOOSA *    FAIR      60  43  54 NE5       30.08F                  
CENTERVILLE *  PTSUNNY   50  46  87 N5        30.11S                  
OTTUMWA        CLOUDY    59  45  59 VRB5      30.08S                  
WASHINGTON *   CLOUDY    57  46  67 N7G14     30.09F                  
$$

ABBREVIATIONS USED IN REMARKS
   TC - TEMPERATURES IN CELSIUS
  WCI - WIND CHILL INDEX
   HX - HEAT INDEX
  VSB - VISIBILITY  
$$